Preview of NWS' New Version of Forecast
This preview is not operational and should not be used for support decisions.

Regional Weather Roundup (RWR)

Issued by National Weather Service (NWS)

                            
000
ASUS43 KMKX 220621
RWRWI 

WISCONSIN REGIONAL WEATHER ROUNDUP
NATIONAL WEATHER SERVICE MILWAUKEE/SULLIVAN WI
100 AM CDT MON JUL 22 2019

NOTE: "FAIR" INDICATES FEW OR NO CLOUDS BELOW 12,000 FEET WITH NO
SIGNIFICANT WEATHER AND/OR OBSTRUCTIONS TO VISIBILITY.

WIZ001-002-006>008-014>016-023>028-220700-
NORTHWEST WISCONSIN
  
CITY           SKY/WX    TMP DP  RH WIND       PRES   REMARKS
SUPERIOR ARPT  FAIR      56  49  78 CALM      30.16R                  
6HR MIN TEMP:  56; 6HR MAX TEMP:  68;                                

ASHLAND        FAIR      57  55  93 NW5       30.14R                  
6HR MIN TEMP:  55; 6HR MAX TEMP:  69;                                

HAYWARD        FAIR      59  59 100 CALM      30.14S                  
6HR MIN TEMP:  59; 6HR MAX TEMP:  70;                                

SIREN          FAIR      61  50  67 N5        30.15S                  
6HR MIN TEMP:  61; 6HR MAX TEMP:  73;                                

CUMBERLAND     NOT AVBL                                               
RICE LAKE      CLOUDY    64  51  63 CALM      30.14S                  
6HR MIN TEMP:  63; 6HR MAX TEMP:  73;                                

CHETEK         CLOUDY    65  56  73 CALM      30.13R                  
LADYSMITH      FAIR      58  56  92 N6        30.15R                  
6HR MIN TEMP:  59; 6HR MAX TEMP:  73;                                

EAU CLAIRE     CLOUDY    66  57  72 CALM      30.10R                  
6HR MIN TEMP:  66; 6HR MAX TEMP:  77;                                

MENOMONIE      CLOUDY    63  57  81 N3        30.12R                  
6HR MIN TEMP:  63; 6HR MAX TEMP:  72;                                

NEW RICHMOND   FAIR      63  56  80 N6        30.14R                  
6HR MIN TEMP:  63; 6HR MAX TEMP:  75;                                

OSCEOLA        FAIR      62  57  81 NW5       30.18R                  
6HR MIN TEMP:  63; 6HR MAX TEMP:  74;                                

$$
 
WIZ003>005-009-010-017-018-220700-
NORTH CENTRAL WISCONSIN
  
CITY           SKY/WX    TMP DP  RH WIND       PRES   REMARKS
MANITOWISH WTR FAIR      57  57  99 N3        30.13S                  
6HR MIN TEMP:  54; 6HR MAX TEMP:  68;                                

ARBOR VITAE    FAIR      57  54  89 CALM      30.13S                  
6HR MIN TEMP:  57; 6HR MAX TEMP:  72;                                

WOODRUFF       FAIR      57  54  89 CALM      30.13S                  
6HR MIN TEMP:  57; 6HR MAX TEMP:  72;                                

RHINELANDER    FAIR      57  52  83 CALM      30.13S                  
6HR MIN TEMP:  57; 6HR MAX TEMP:  71;                                

EAGLE RIVER    FAIR      54  53  97 CALM      30.12R                  
6HR MIN TEMP:  52; 6HR MAX TEMP:  69;                                

LAND O LAKES   FAIR      53  52  96 CALM      30.15R                  
6HR MIN TEMP:  53; 6HR MAX TEMP:  67;                                

PHILLIPS       FAIR      55  55  99 CALM      30.13S                  
6HR MIN TEMP:  56; 6HR MAX TEMP:  70;                                

TOMAHAWK       FAIR      51  50  95 CALM      30.13S                  
6HR MIN TEMP:  51; 6HR MAX TEMP:  70;                                

MEDFORD        FAIR      57  53  86 NE6       30.12S                  
6HR MIN TEMP:  57; 6HR MAX TEMP:  69;                                

MERRILL        FAIR      56  55  97 CALM      30.13R                  
6HR MIN TEMP:  56; 6HR MAX TEMP:  72;                                

$$
 
WIZ029-030-035-036-043>047-220700-
CENTRAL WISCONSIN
  
CITY           SKY/WX    TMP DP  RH WIND       PRES   REMARKS
WAUSAU         CLOUDY    63  54  72 N3        30.09R                  
6HR MIN TEMP:  63; 6HR MAX TEMP:  73;                                

MOSINEE        CLOUDY    61  54  77 N7        30.12S                  
MARSHFIELD     CLOUDY    65  55  70 NE9       30.10R                  
6HR MIN TEMP:  65; 6HR MAX TEMP:  74;                                

STEVENS POINT  CLOUDY    63  57  80 N5        30.10S                  
6HR MIN TEMP:  63; 6HR MAX TEMP:  73;                                

WAUPACA        NOT AVBL                                               
WAUTOMA        FAIR      66  61  84 N3        30.08R                  
6HR MIN TEMP:  66; 6HR MAX TEMP:  76;                                

WISC RAPIDS    CLOUDY    68  57  68 NE8       30.09S                  
6HR MIN TEMP:  68; 6HR MAX TEMP:  77;                                

CAMP DOUGLAS   NOT AVBL                                               
$$
 
WIZ011>013-019>022-031-037>040-048>050-220700-
NORTHEAST WISCONSIN
  
CITY           SKY/WX    TMP DP  RH WIND       PRES   REMARKS
ANTIGO         FAIR      56  53  90 E3        30.13R                  
6HR MIN TEMP:  56; 6HR MAX TEMP:  69;                                

SHAWANO        CLOUDY    66  54  64 NE6       30.09S                  
6HR MIN TEMP:  66; 6HR MAX TEMP:  77;                                

OCONTO         MOCLDY    62  52  69 N3        30.08S                  
6HR MIN TEMP:  63; 6HR MAX TEMP:  71;                                

STURGEON BAY   MOCLDY    62  53  72 NE5       30.08R                  
6HR MIN TEMP:  62; 6HR MAX TEMP:  70;                                

GREEN BAY      MOCLDY    66  54  65 NE7       30.07R                  
6HR MIN TEMP:  66; 6HR MAX TEMP:  74; 6HR PCP: TRACE;                

MANITOWOC      FAIR      64  57  78 N6        30.06S                  
6HR MIN TEMP:  64; 6HR MAX TEMP:  70;                                

APPLETON       CLOUDY    64  50  59 NE5       30.06S                  
CLINTONVILLE   CLOUDY    65  54  68 NE7       30.09R                  
6HR MIN TEMP:  65; 6HR MAX TEMP:  77; 6HR PCP:  0.01;                

OSHKOSH        FAIR      67  56  67 E9        30.06R                  
6HR MIN TEMP:  67; 6HR MAX TEMP:  78;                                

$$
 
WIZ032>034-041-042-053>061-220700-
SOUTHWEST WISCONSIN
  
CITY           SKY/WX    TMP DP  RH WIND       PRES   REMARKS
LA CROSSE      FAIR      70  60  70 N7        30.07S                  
6HR MIN TEMP:  70; 6HR MAX TEMP:  79; 6HR PCP: TRACE;                

SPARTA         CLOUDY    63  60  89 N3        30.08S                  
6HR MIN TEMP:  61; 6HR MAX TEMP:  74;                                

VIROQUA        FAIR      66  64  94 N7        30.07F                  
6HR MIN TEMP:  65; 6HR MAX TEMP:  72;                                

BOSCOBEL       FAIR      67  62  84 CALM      30.05R                  
6HR MIN TEMP:  67; 6HR MAX TEMP:  77;                                

PRAIRIE DU CHI FAIR      68  61  77 CALM      30.05S                  
6HR MIN TEMP:  68; 6HR MAX TEMP:  76;                                

PLATTEVILLE    FAIR      67  64  90 N5        30.05S                  
6HR MIN TEMP:  66; 6HR MAX TEMP:  75;                                

$$

WIZ056-057-062-063-064-067-068-220700-
SOUTH CENTRAL WISCONSIN
  
CITY           SKY/WX    TMP DP  RH WIND       PRES   REMARKS
REEDSBURG      FAIR      68  61  78 NE8       30.05S                  
6HR MIN TEMP:  67; 6HR MAX TEMP:  75;                                

BARABOO/DELLS  FAIR      66  60  80 NE7       30.05S                  
6HR MIN TEMP:  67; 6HR MAX TEMP:  76;                                

LONE ROCK      FAIR      70  60  70 N9        30.03S                  
6HR MIN TEMP:  66; 6HR MAX TEMP:  76;                                

MINERAL POINT  FAIR      66  63  88 N6        30.05S                  
MADISON        FAIR      68  58  70 E9        30.03S                  
6HR MIN TEMP:  68; 6HR MAX TEMP:  77;                                

MIDDLETON      FAIR      67  61  82 E3        30.04F                  
6HR MIN TEMP:  67; 6HR MAX TEMP:  77;                                

WATERTOWN      FAIR      65  60  85 NE6       30.03F                  
6HR MIN TEMP:  65; 6HR MAX TEMP:  76;                                

MONROE         FAIR      67  60  76 N6        30.03S                  
6HR MIN TEMP:  67; 6HR MAX TEMP:  75;                                

JANESVILLE     FAIR      68  59  73 CALM      30.02S                  
$$
 
WIZ051-052-058>065-066-070>072-220700-
SOUTHEAST WISCONSIN
  
CITY           SKY/WX    TMP DP  RH WIND       PRES   REMARKS
MILWAUKEE      CLOUDY    67  59  75 N12       30.01F                  
6HR MIN TEMP:  66; 6HR MAX TEMP:  71;                                

WAUKESHA       FAIR      63  55  77 NE7       30.04F                  
MILWAUKEE/TIMM FAIR      64  55  72 N9        30.03F                  
RACINE         FAIR      66  59  78 N12G21    30.02F                  
6HR MIN TEMP:  66; 6HR MAX TEMP:  73;                                

KENOSHA        FAIR      67  61  81 N7        30.01F                  
6HR MIN TEMP:  67; 6HR MAX TEMP:  75;                                

FOND DU LAC    CLOUDY    68  58  70 NE10      30.06R                  
6HR MIN TEMP:  68; 6HR MAX TEMP:  79;                                

SHEBOYGAN      CLOUDY    64  58  80 NE10      30.05R                  
6HR MIN TEMP:  64; 6HR MAX TEMP:  70;                                

WEST BEND      MOCLDY    63  57  82 NE6       30.05R                  
JUNEAU         FAIR      64  59  83 CALM      30.06S                  
6HR MIN TEMP:  65; 6HR MAX TEMP:  75;                                

$$

LSZ147-162-220700-
LAKE SUPERIOR
  
STATION/POSITION TIME  TEMP    WIND        PRES    WAVE
                       AIR SEA DIR/SP/G            HT/PER
                 (UTC) (F)     (DEG/KT/KT) (MB)    (FT/S)
W MID LAKE BUOY  0550   53 48  270/  6/  6 1019.4S   0
$$
 
LMZ867-665-643>646-220700-
LAKE MICHIGAN
  
STATION/POSITION TIME  TEMP    WIND        PRES    WAVE
                       AIR SEA DIR/SP/G            HT/PER
                 (UTC) (F)     (DEG/KT/KT) (MB)    (FT/S)
CHAMBERS ISLAND  0540   66      10/ 14/ 16 1017.3S
S GREEN BAY BUOY 0400   73 73   50/ 16/ 19 1017.6
N MID LAKE BUOY  0600   62     350/ 10/ 12 1017.9
NORTHPORT PIER   0540   64     350/  4/  6 1017.9S
KEWAUNEE